Find Starlink 31651

NORAD ID: 59860 Int'l Des: 2024-098 Owner: SPXS Country: US Constellation: starlink operational
LEOCIRCULAR

当前视图

正在加载3D地球...

About Starlink 31651

Starlink 31651 (NORAD 59860) is a starlink constellation satellite (v2 mini) launched May 24, 2024 by SPXS of US. It operates in LEO, CIRCULAR orbit with a mass of 730.00 kg.

即将过境

Passes for default location (London). Set your location on the main map for personalized predictions.

高度历史

Loading altitude history...

两行轨道根数

1 59860U 24098C 26224.42289416 .00003714 00000-0 14445-3 0 9999
2 59860 43.0041 118.4900 0000588 329.4731 30.6086 15.27571227125667
Epoch: Aug 12, 2026 • Age: 25 hours

当前状态

高度 486.3 km
远地点 / 近地点 N/A
速度 7.63 km/s
星下点 43.13°N, 63.11°E
发射日期 May 24, 2024
运行时间 2.2 years
类型 internet

技术详情

分类 Payload
质量 730.00 kg
干质量 700.00 kg
总质量 730.00 kg
长度 0.30 m
直径 4.10 m
跨度 29.00 m
形状 Box + pan
制造商 SPXS
平台类型 Starlink V2M
阶段状态 In Orbit
所有者/国家 SPXS/US

Most Searched